Date String (YYYY-MM-DD hh:mm:ss) UTC,Instrument flags,Ambient pressure (hPa),Sample flow (lpm),Bypass flow (lpm),Sample temperature (°C),Ambient temperature (°C),ASC tube jacket temperature (°C),LED temperature (°C),Box temperature (°C),Sample RH (%),Span deviation,Mass concentration (μg/m³),Mass concentration (μg/m³),Mass concentration (μg/m³)
DateTimeUTC,F1_M11,P_M11,Q1_M11,Q2_M11,T1_M11,T2_M11,T3_M11,T4_M11,T5_M11,U1_M11,ZSPAN_M11,X2_M11,X0_M11,X1_M11
2021-12-20 03:00:00,,0824.5,4.99,0.00,24.3,23.5,00.0,33.4,26.0,03.7,0000.0,0001.08,0001.50,0000.93
2021-12-20 03:01:00,,0824.5,5.01,0.00,24.3,23.5,00.0,33.4,26.0,03.7,0000.0,0001.06,0001.46,0000.93
2021-12-20 03:02:00,,0824.4,4.99,0.00,24.3,23.5,00.0,33.4,26.0,03.7,0000.0,0001.04,0001.41,0000.93
2021-12-20 03:03:00,,0824.4,5.00,0.00,24.3,23.5,00.0,33.4,26.0,03.7,0000.0,0001.01,0001.34,0000.91
2021-12-20 03:04:00,,0824.4,5.00,0.00,24.3,23.5,00.0,33.4,26.1,03.7,0000.0,0000.99,0001.32,0000.88
2021-12-20 03:05:00,,0824.5,5.01,0.00,24.3,23.5,00.0,33.4,26.0,03.7,0000.0,0000.98,0001.31,0000.87
2021-12-20 03:06:00,,0824.4,4.99,0.00,24.3,23.5,00.0,33.4,26.0,03.7,0000.0,0001.02,0001.38,0000.87
2021-12-20 03:07:00,,0824.5,5.01,0.00,24.3,23.5,00.0,33.4,26.0,03.7,0000.0,0001.04,0001.44,0000.86
2021-12-20 03:08:00,,0824.5,4.99,0.00,24.3,23.6,00.0,33.4,26.0,03.7,0000.0,0001.04,0001.46,0000.86
2021-12-20 03:09:00,,0824.5,5.00,0.00,24.3,23.6,00.0,33.3,26.0,03.7,0000.0,0001.02,0001.39,0000.85
2021-12-20 03:10:00,,0824.3,5.00,0.00,24.3,23.6,00.0,33.3,26.1,03.8,0000.0,0000.98,0001.31,0000.84
2021-12-20 03:11:00,,0824.4,5.00,0.00,24.4,23.6,00.0,33.3,26.1,03.8,0000.0,0000.95,0001.26,0000.84
2021-12-20 03:12:00,,0824.4,5.00,0.00,24.4,23.6,00.0,33.3,26.1,03.8,0000.0,0000.94,0001.26,0000.82
2021-12-20 03:13:00,,0824.4,5.00,0.00,24.4,23.6,00.0,33.3,26.1,03.7,0000.0,0000.93,0001.27,0000.80
2021-12-20 03:14:00,,0824.4,4.99,0.00,24.4,23.7,00.0,33.4,26.2,03.8,0000.0,0000.95,0001.29,0000.80
2021-12-20 03:15:00,,0824.4,4.99,0.00,24.4,23.7,00.0,33.4,26.2,03.7,0000.0,0000.96,0001.28,0000.79
2021-12-20 03:16:00,,0824.4,5.00,0.00,24.5,23.7,00.0,33.4,26.3,03.8,0000.0,0000.94,0001.25,0000.78
2021-12-20 03:17:00,,0824.4,5.00,0.00,24.5,23.7,00.0,33.4,26.3,03.8,0000.0,0000.88,0001.15,0000.76
2021-12-20 03:18:00,,0824.4,5.01,0.00,24.5,23.7,00.0,33.4,26.2,03.7,0000.0,0000.85,0001.09,0000.75
2021-12-20 03:19:00,,0824.4,4.99,0.00,24.5,23.7,00.0,33.4,26.2,03.7,0000.0,0000.82,0001.03,0000.74
2021-12-20 03:20:00,,0824.4,5.00,0.00,24.4,23.7,00.0,33.4,26.2,03.8,0000.0,0000.82,0001.06,0000.72
2021-12-20 03:21:00,,0824.4,4.99,0.00,24.4,23.7,00.0,33.4,26.2,03.8,0000.0,0000.82,0001.25,0000.72
2021-12-20 03:22:00,,0824.4,5.01,0.00,24.4,23.7,00.0,33.4,26.2,03.8,0000.0,0000.83,0001.40,0000.72
2021-12-20 03:23:00,,0824.4,5.00,0.00,24.4,23.7,00.0,33.4,26.2,03.8,0000.0,0000.82,0001.38,0000.72
2021-12-20 03:24:00,,0824.4,4.99,0.00,24.4,23.7,00.0,33.4,26.2,03.8,0000.0,0000.82,0001.36,0000.72
2021-12-20 03:25:00,,0824.4,5.00,0.00,24.4,23.7,00.0,33.4,26.2,03.7,0000.0,0000.80,0001.31,0000.71
2021-12-20 03:26:00,,0824.4,5.00,0.00,24.4,23.7,00.0,33.4,26.2,03.7,0000.0,0000.79,0001.56,0000.72
2021-12-20 03:27:00,,0824.3,5.01,0.00,24.5,23.7,00.0,33.4,26.3,03.7,0000.0,0000.80,0001.87,0000.73
2021-12-20 03:28:00,,0824.3,4.99,0.00,24.5,23.7,00.0,33.4,26.3,03.7,0000.0,0000.82,0001.89,0000.74
2021-12-20 03:29:00,,0824.4,5.01,0.00,24.5,23.8,00.0,33.4,26.3,03.7,0000.0,0000.84,0001.93,0000.76
2021-12-20 03:30:00,,0824.3,4.99,0.00,24.5,23.8,00.0,33.4,26.3,03.7,0000.0,0000.86,0001.96,0000.77
2021-12-20 03:31:00,,0824.3,5.01,0.00,24.5,23.7,00.0,33.4,26.3,03.7,0000.0,0000.85,0001.94,0000.78
2021-12-20 03:32:00,,0824.3,5.00,0.00,24.5,23.7,00.0,33.4,26.2,03.7,0000.0,0000.86,0001.77,0000.78
2021-12-20 03:33:00,,0824.3,5.00,0.00,24.5,23.7,00.0,33.4,26.2,03.7,0000.0,0000.86,0001.64,0000.78
2021-12-20 03:34:00,,0824.2,5.01,0.00,24.5,23.7,00.0,33.4,26.2,03.7,0000.0,0000.85,0001.63,0000.77
2021-12-20 03:35:00,,0824.2,4.99,0.00,24.5,23.7,00.0,33.4,26.2,03.8,0000.0,0000.83,0001.61,0000.76
2021-12-20 03:36:00,,0824.2,5.01,0.00,24.5,23.7,00.0,33.4,26.1,03.8,0000.0,0000.80,0001.56,0000.75
2021-12-20 03:37:00,,0824.2,4.99,0.00,24.5,23.7,00.0,33.4,26.2,03.8,0000.0,0000.77,0001.25,0000.72
2021-12-20 03:38:00,,0824.2,5.01,0.00,24.5,23.6,00.0,33.4,26.1,03.8,0000.0,0000.76,0000.96,0000.71
2021-12-20 03:39:00,,0824.2,5.00,0.00,24.5,23.6,00.0,33.4,26.2,03.8,0000.0,0000.77,0001.00,0000.70
2021-12-20 03:40:00,,0824.2,5.01,0.00,24.5,23.6,00.0,33.5,26.2,03.8,0000.0,0000.77,0001.00,0000.69
2021-12-20 03:41:00,,0824.3,5.00,0.00,24.5,23.6,00.0,33.5,26.2,03.7,0000.0,0000.76,0000.97,0000.68
2021-12-20 03:42:00,,0824.3,5.01,0.00,24.4,23.6,00.0,33.5,26.1,03.7,0000.0,0000.78,0001.01,0000.68
2021-12-20 03:43:00,,0824.2,5.00,0.00,24.4,23.6,00.0,33.5,26.1,03.7,0000.0,0000.81,0001.07,0000.69
2021-12-20 03:44:00,,0824.2,5.00,0.00,24.4,23.5,00.0,33.4,26.1,03.7,0000.0,0000.82,0001.08,0000.69
2021-12-20 03:45:00,,0824.2,5.00,0.00,24.4,23.5,00.0,33.4,26.1,03.8,0000.0,0000.84,0001.12,0000.70
2021-12-20 03:46:00,,0824.1,5.00,0.00,24.4,23.5,00.0,33.4,26.1,03.8,0000.0,0000.85,0001.13,0000.70
2021-12-20 03:47:00,,0824.2,4.99,0.00,24.4,23.5,00.0,33.4,26.0,03.9,0000.0,0000.87,0001.17,0000.71
2021-12-20 03:48:00,,0824.1,5.01,0.00,24.4,23.5,00.0,33.4,26.0,03.9,0000.0,0000.88,0001.21,0000.71
2021-12-20 03:49:00,,0824.1,4.99,0.00,24.4,23.5,00.0,33.4,26.0,03.9,0000.0,0000.90,0001.25,0000.72
2021-12-20 03:50:00,,0824.1,5.01,0.00,24.4,23.5,00.0,33.4,26.0,03.8,0000.0,0000.90,0001.23,0000.72
2021-12-20 03:51:00,,0824.1,5.01,0.00,24.4,23.5,00.0,33.4,26.0,03.8,0000.0,0000.88,0001.18,0000.71
2021-12-20 03:52:00,,0824.1,5.00,0.00,24.4,23.5,00.0,33.4,26.0,03.8,0000.0,0000.87,0001.19,0000.69
2021-12-20 03:53:00,,0824.1,5.00,0.00,24.4,23.5,00.0,33.4,26.1,03.8,0000.0,0000.85,0001.17,0000.68
2021-12-20 03:54:00,,0824.2,4.99,0.00,24.4,23.5,00.0,33.4,26.1,03.8,0000.0,0000.82,0001.19,0000.66
2021-12-20 03:55:00,,0824.2,5.00,0.00,24.4,23.5,00.0,33.4,26.0,03.8,0000.0,0000.81,0001.22,0000.65
2021-12-20 03:56:00,,0824.2,4.99,0.00,24.4,23.5,00.0,33.4,26.0,03.7,0000.0,0000.79,0001.16,0000.64
2021-12-20 03:57:00,,0824.2,4.99,0.00,24.4,23.5,00.0,33.4,26.0,03.7,0000.0,0000.79,0001.18,0000.64
2021-12-20 03:58:00,,0824.1,5.02,0.00,24.4,23.5,00.0,33.4,26.1,03.7,0000.0,0000.79,0001.16,0000.65
2021-12-20 03:59:00,,0824.2,4.99,0.00,24.4,23.5,00.0,33.4,26.0,03.7,0000.0,0000.78,0001.13,0000.65
